Weather History for Sault Ste Marie, MI

Change the Weather History Date:

Saturday, January 11, 2014

  Actual Average Record
Temperature  
Mean Temperature 34 °F 15 °F  
Max Temperature 35 °F 23 °F 44 °F (1980)
Min Temperature 32 °F 8 °F -29 °F (1981)
Degree Days  
Heating Degree Days 31 50  
Month to date heating degree days 614 538  
Since 1 July heating degree days 4129 3797  
Moisture  
Dew Point 31 °F    
Average Humidity 89    
Maximum Humidity 100    
Minimum Humidity 78    
Precipitation  
Precipitation 0.26 in 0.08 in 0.44 in (1940)
Month to date precipitation 0.72 0.85  
Year to date precipitation 0.72 0.85  
Snow  
Snow 2.10 in 1.10 in 8.50 in (2008)
Month to date snowfall 8.7 11.6  
Since 1 July snowfall 63.4 61.8  
Snow Depth 18.00 in    
Sea Level Pressure  
Sea Level Pressure 29.31 in    
Wind  
Wind Speed 10 mph (West)    
Max Wind Speed 22 mph    
Max Gust Speed 30 mph    
Visibility 4 miles    
Events Fog , Rain , Snow    
T = Trace of Precipitation, MM = Missing Value Source: NWS Daily Summary

Daily Weather History Graph

Daily Weather History Graph

Search for Another Location

Airport:

Trip Planner

Search our weather history database for the weather conditions in past years. The results will help you decide how hot, cold, wet, or windy it might be!

Date:

Astronomy

Jan. 11, 2014 Rise Set
Actual Time 8:19 AM EST 5:12 PM EST
Civil Twilight 7:44 AM EST 5:46 PM EST
Nautical Twilight 7:07 AM EST 6:23 PM EST
Astronomical Twilight 6:30 AM EST 7:00 PM EST
Moon 1:58 PM EST (1/11) 4:19 AM EST (1/11)
Length of Visible Light 10h 01m
Length of Day
8h 53m
Waxing Gibbous, 83% of the Moon is Illuminated
Jan 11
Waxing Gibbous
Jan 15
Full
Jan 24
Last Quarter
Jan 30
New
Feb 6
First Quarter

Hourly Weather History & Observations

Time (EST) Temp. Windchill Dew Point Humidity Pressure Visibility Wind Dir Wind Speed Gust Speed Precip Events Conditions
12:29 AM 32.0 °F 24.8 °F 30.0 °F 92% 29.53 in 0.8 mi ESE 8.1 mph - 0.05 in Snow Light Snow
12:55 AM 32.0 °F 26.4 °F 30.9 °F 96% 29.53 in 0.8 mi East 5.8 mph - 0.12 in Snow Light Snow
1:08 AM 32.0 °F 25.6 °F 30.9 °F 96% 29.50 in 1.0 mi ESE 6.9 mph - 0.02 in Snow Light Snow
1:20 AM 33.1 °F 25.5 °F 30.9 °F 92% 29.48 in 0.8 mi ESE 9.2 mph - 0.04 in Snow Light Snow
1:51 AM 33.8 °F 27.7 °F 30.2 °F 87% 29.46 in 1.2 mi ESE 6.9 mph - 0.10 in Snow Light Snow
1:55 AM 33.1 °F 26.1 °F 30.9 °F 92% 29.47 in 1.2 mi ESE 8.1 mph - 0.10 in Snow Light Snow
2:15 AM 33.1 °F 26.9 °F 30.9 °F 92% 29.44 in 2.5 mi ESE 6.9 mph - 0.01 in Snow Light Snow
2:25 AM 33.1 °F 26.1 °F 30.9 °F 92% 29.44 in 4.0 mi ESE 8.1 mph - 0.01 in Snow Light Snow
2:55 AM 33.1 °F 27.7 °F 30.9 °F 92% 29.44 in 5.0 mi ESE 5.8 mph - 0.02 in Snow Light Snow
3:55 AM 33.1 °F 27.7 °F 32.0 °F 96% 29.41 in 5.0 mi SE 5.8 mph - 0.00 in   Overcast
4:24 AM 33.1 °F 26.9 °F 32.0 °F 96% 29.36 in 2.0 mi SE 6.9 mph - 0.00 in Rain Light Rain
4:51 AM 33.8 °F 27.0 °F 32.0 °F 93% 29.35 in 1.2 mi ESE 8.1 mph - 0.00 in Rain Light Rain
4:55 AM 33.1 °F 27.7 °F 32.0 °F 96% 29.37 in 1.0 mi ESE 5.8 mph - 0.00 in Rain Light Rain
5:24 AM 33.1 °F 27.7 °F 32.0 °F 96% 29.32 in 2.0 mi SE 5.8 mph - 0.01 in Rain Light Rain
5:55 AM 34.0 °F 28.8 °F 32.0 °F 92% 29.33 in 1.8 mi SE 5.8 mph - 0.01 in Rain Light Rain
6:55 AM 34.0 °F 28.8 °F 33.1 °F 96% 29.31 in 1.0 mi SSE 5.8 mph - 0.00 in Rain Light Rain
7:02 AM 34.0 °F 28.8 °F 33.1 °F 96% 29.29 in 0.8 mi SSE 5.8 mph - 0.00 in Rain Light Rain
7:28 AM 34.0 °F 28.8 °F 33.1 °F 96% 29.28 in 1.0 mi SSE 5.8 mph - 0.00 in Rain Light Rain
7:39 AM 34.0 °F 29.8 °F 33.1 °F 96% 29.27 in 0.8 mi SSE 4.6 mph - 0.00 in   Mist
7:55 AM 34.0 °F 29.8 °F 33.1 °F 96% 29.29 in 0.8 mi South 4.6 mph - 0.00 in   Mist
8:55 AM 35.1 °F 30.1 °F 34.0 °F 96% 29.28 in 0.2 mi South 5.8 mph - N/A Fog Fog
9:55 AM 35.1 °F 29.3 °F 34.0 °F 96% 29.27 in 0.2 mi West 6.9 mph - N/A Fog Fog
10:13 AM 34.0 °F 28.8 °F 34.0 °F 100% 29.25 in 1.5 mi WSW 5.8 mph - N/A   Overcast
10:44 AM 34.0 °F 29.8 °F 33.1 °F 96% 29.24 in 2.0 mi SSW 4.6 mph - N/A   Overcast
10:55 AM 34.0 °F 28.8 °F 33.1 °F 96% 29.26 in 1.2 mi SW 5.8 mph - N/A   Overcast
11:16 AM 34.0 °F 28.8 °F 33.1 °F 96% 29.23 in 2.5 mi West 5.8 mph - N/A   Overcast
11:24 AM 34.0 °F 26.0 °F 32.0 °F 92% 29.23 in 5.0 mi West 10.4 mph 16.1 mph N/A   Overcast
11:52 AM 33.8 °F 27.0 °F 32.0 °F 93% 29.22 in 10.0 mi West 8.1 mph - N/A   Overcast
11:55 AM 33.1 °F 26.9 °F 32.0 °F 96% 29.23 in 10.0 mi West 6.9 mph - N/A   Overcast
12:26 PM 32.0 °F 26.4 °F 30.9 °F 96% 29.21 in 4.0 mi West 5.8 mph - 0.00 in Snow Light Snow
12:55 PM 33.1 °F 26.1 °F 30.9 °F 92% 29.21 in 4.0 mi WNW 8.1 mph - 0.00 in Snow Light Snow
1:07 PM 33.1 °F 24.4 °F 30.9 °F 92% 29.19 in 2.5 mi WNW 11.5 mph - 0.00 in Snow Light Snow
1:15 PM 33.1 °F 24.4 °F 30.9 °F 92% 29.19 in 2.0 mi NW 11.5 mph - 0.00 in Snow Light Snow
1:33 PM 32.0 °F 23.6 °F 30.9 °F 96% 29.19 in 1.2 mi NW 10.4 mph - 0.00 in Snow Light Snow
1:49 PM 32.0 °F 22.5 °F 30.2 °F 93% 29.18 in 3.0 mi WNW 12.7 mph 19.6 mph 0.00 in Snow Light Snow
1:50 PM 32.0 °F 22.5 °F 30.0 °F 92% 29.20 in 3.0 mi WNW 12.7 mph 19.6 mph 0.00 in Snow Light Snow
2:02 PM 32.0 °F 22.5 °F 30.0 °F 92% 29.18 in 2.5 mi NW 12.7 mph 20.7 mph 0.00 in Snow Light Snow
2:12 PM 32.0 °F 22.5 °F 30.0 °F 92% 29.19 in 3.0 mi NW 12.7 mph 21.9 mph 0.00 in Snow Light Snow
2:55 PM 33.1 °F 23.9 °F 30.0 °F 89% 29.21 in 10.0 mi NW 12.7 mph 26.5 mph 0.00 in   Overcast
3:23 PM 33.1 °F 23.4 °F 30.0 °F 89% 29.20 in 1.5 mi NW 13.8 mph 23.0 mph 0.00 in Snow Light Snow
3:41 PM 33.1 °F 23.9 °F 30.0 °F 89% 29.20 in 3.0 mi NW 12.7 mph - 0.01 in Snow Light Snow
3:55 PM 33.1 °F 22.6 °F 28.9 °F 85% 29.23 in 3.0 mi NW 16.1 mph 24.2 mph 0.01 in Snow Light Snow
4:16 PM 33.1 °F 23.9 °F 28.9 °F 85% 29.23 in 10.0 mi WNW 12.7 mph 21.9 mph 0.00 in   Overcast
4:55 PM 33.1 °F 22.2 °F 28.9 °F 85% 29.26 in 8.0 mi WNW 17.3 mph 23.0 mph 0.00 in   Overcast
5:55 PM 32.0 °F 22.1 °F 28.0 °F 85% 29.30 in 8.0 mi WNW 13.8 mph 27.6 mph 0.00 in   Overcast
6:17 PM 32.0 °F 20.8 °F 27.0 °F 82% 29.30 in 10.0 mi WNW 17.3 mph 26.5 mph 0.00 in   Overcast
6:44 PM 32.0 °F 22.1 °F 27.0 °F 82% 29.31 in 9.0 mi WNW 13.8 mph 26.5 mph 0.00 in   Overcast
6:55 PM 32.0 °F 20.5 °F 27.0 °F 82% 29.33 in 8.0 mi WNW 18.4 mph 29.9 mph 0.00 in   Overcast
7:55 PM 32.0 °F 23.0 °F 27.0 °F 82% 29.35 in 10.0 mi WNW 11.5 mph 21.9 mph 0.00 in   Overcast
8:55 PM 32.0 °F 21.6 °F 27.0 °F 82% 29.37 in 10.0 mi WNW 15.0 mph 24.2 mph 0.00 in   Overcast
9:55 PM 32.0 °F 21.2 °F 28.0 °F 85% 29.40 in 10.0 mi WNW 16.1 mph 25.3 mph N/A   Overcast
10:44 PM 32.0 °F 22.5 °F 27.0 °F 82% 29.40 in 10.0 mi WNW 12.7 mph 20.7 mph 0.00 in   Overcast
10:55 PM 32.0 °F 24.2 °F 26.1 °F 79% 29.42 in 10.0 mi WNW 9.2 mph 23.0 mph 0.00 in   Overcast
11:55 PM 32.0 °F 23.6 °F 27.0 °F 82% 29.45 in 10.0 mi WNW 10.4 mph - N/A   Overcast